Regional Weather Roundup
Issued by NWS Mobile, AL

Home | Current Version | Previous Version | Text Only | Print | Product List | Glossary On
Versions: 1 2 3 4 5 6 7 8 9 10 11 12 13 14 15 16 17 18 19 20 21 22 23 24 25 26 27 28 29 30 31 32 33 34 35 36 37 38 39 40 41 42 43 44 45 46 47 48 49 50
000
ASUS44 KMOB 062312
RWRMOB
REGIONAL WEATHER ROUNDUP
NATIONAL WEATHER SERVICE MOBILE AL
500 PM CST SAT FEB 06 2016

NOTE: "FAIR" INDICATES FEW OR NO CLOUDS BELOW 12,000 FEET WITH NO
      SIGNIFICANT WEATHER AND/OR OBSTRUCTIONS TO VISIBILITY.

  * THESE STATIONS ARE PART OF THE UNIVERSITY OF SOUTH ALABAMA
    MESONET AND ARE NOT UNDER NWS OR FAA QUALITY CONTROL.

ALZ061>064-070000-
COASTAL ALABAMA

CITY           SKY/WX    TMP DP  RH WIND       PRES   REMARKS
MOBILE REG APT PTCLDY    54  21  27 N9        30.23F
BROOKLEY FIELD CLEAR     54  24  31 NE8       30.24F
USA CAMPUS*    NOT AVBL
DOG RIVER*     NOT AVBL


CITY           SKY/WX    TMP DP  RH WIND       PRES   REMARKS
MOUNT VERNON*  NOT AVBL
SARALAND*      NOT AVBL
BAY MINETTE*   NOT AVBL
LOXLEY*        NOT AVBL
ROBERTSDALE*   NOT AVBL
FAIRHOPE*      NOT AVBL
ELBERTA*       NOT AVBL
FOLEY*         NOT AVBL
GRAND BAY*     NOT AVBL
DAUPHIN ISLND* NOT AVBL
BON SCOUR NWR* NOT AVBL
GULF SHORES    PTCLDY    54  26  33 NW13      30.22R

$$

ALZ051>060-070000-
INTERIOR SOUTHWEST AND SOUTH CENTRAL ALABAMA

CITY           SKY/WX    TMP DP  RH WIND       PRES   REMARKS
GREENVILLE     NOT AVBL
EVERGREEN      CLEAR     52  17  25 N7        30.24S
CASTLEBERRY*   NOT AVBL
ATMORE*        NOT AVBL
DIXIE*         NOT AVBL
ANDALUSIA/OPP  CLEAR     56  23  27 N6        30.22R
ANDALUSIA*     NOT AVBL
FLORALA APT    CLEAR     52  24  33 CALM      30.23R
FLORALA*       NOT AVBL

$$

FLZ001>006-070000-
WESTERN FLORIDA PANHANDLE

CITY           SKY/WX    TMP DP  RH WIND       PRES   REMARKS
PENSACOLA      PTCLDY    55  21  26 N8        30.21S
NAS PENSACOLA  NOT AVBL
MILTON         PTCLDY    54  25  32 N5        30.21S
WHTNG S FIELD  PTCLDY    55  24  30 N8        30.21S


CITY           SKY/WX    TMP DP  RH WIND       PRES   REMARKS
WALNUT HILL*   NOT AVBL
JAY*           NOT AVBL
DUKE FIELD     PTCLDY    55  22  28 N6        30.20R
CRESTVIEW      CLEAR     54  23  30 N5        30.23R
VALPARAISO     PTCLDY    54  29  38 W1        30.19R
DESTIN         CLEAR     56  30  37 W5        30.20S

$$

MSZ076-079-070000-
INTERIOR SOUTHEAST MISSISSIPPI

CITY           SKY/WX    TMP DP  RH WIND       PRES   REMARKS
LEAKESVILLE*   NOT AVBL
AGRICOLA*      NOT AVBL

$$

MARINE OBSERVATIONS

STATION/POSITION TIME  TEMP    WIND        PRES    WAVE
                       AIR SEA DIR/SP/G            HT/PER
                 (UTC) (F)     (DEG/KT/KT) (MB)    (FT/S)
PASCAGOULA       2200   53                 1023.8S
PETIT BOIS ISLND 2200   53                 1024.7R
GRAND BAY        2100   53     210/  7     1025.0
KATRINA CUT      2200   54     230/  3       N/A
CEDAR POINT      2200   54      20/  7     1023.4R
E DAUPHIN ISLAND 2200   54     350/ 10/ 11 1023.4F
MIDDLE BAY LIGHT 2200          350/ 11     1022.7F
USCG MOBILE BAY  2200   54 53              1024.5R
STATE DOCKS      2200   55                 1023.9R
MEAHER PARK      2200   53     330/  8     1024.0R
WEEKS BAY        2100   56                   N/A
FORT MORGAN      2200   54                 1023.0F
12 S ORANGE BCH  2250   54 62  280/ 10/ 12 1023.1R   1/ 5
PENSACOLA BAY    2200   59 53              1023.2S

$$

SELECTED LOCATIONS ACROSS THE REGION

CITY           SKY/WX    TMP DP  RH WIND       PRES   REMARKS
NEW ORLEANS    CLOUDY    54  20  26 NW3       30.26R
GULFPORT       CLEAR     52  29  41 SW7       30.24S
PASCAGOULA AP  CLEAR     53  31  42 SW7       30.24S
PASCAGOULA*    NOT AVBL
HATTIESBURG    CLEAR     56  18  22 N5        30.26R
LAUREL         CLEAR     54  19  26 N6        30.27R
MERIDIAN       CLEAR     51  17  26 N13       30.27S
JACKSON        PTCLDY    55  19  24 N7        30.27F
MONTGOMERY     CLEAR     53  19  26 NE3       30.25R
TROY           CLEAR     53  23  31 N9        30.23R
KINSTON*       NOT AVBL
GENEVA*        NOT AVBL
ASHFORD*       NOT AVBL
DOTHAN         CLEAR     53  27  36 NE6       30.24R
PANAMA CITY    CLEAR     55  29  36 NW8       30.19R

$$




USA.gov is the U.S. government's official web portal to all federal, state and local government web resources and services.